Location: Chevoux
(46.3801°N, 4.9476°E)
Time: 22:55:14
(UTC+00:00)

Cosmos 1655 Rocket - Pass Details

Date: 28 January 2021
Orbit: 971 x 1005 km, 83.0° (Epoch: 04 March)

Event Time Altitude Azimuth Distance (km) Brightness Sun altitude
Rises 18:03:30 0° 161° (SSE) 3,659 6.9 -14.7°
Reaches altitude 10° 18:06:10 10° 153° (SSE) 2,713 6.2 -15.1°
Maximum altitude 18:11:48 38° 88° (E) 1,446 4.4 -16.1°
Drops below altitude 10° 18:17:28 10° 23° (NNE) 2,726 6.0 -17.0°
Sets 18:20:08 0° 16° (NNE) 3,679 6.8 -17.5°
